DW0275 Weather Reports


time (UTC)temp
C
wind
direction
speed
KPH
gust
KPH
rain 1hr
cm
rain 24hr
cm
rain mn
cm
humidity
%
barometer
mb
20260505223821 26 68 9.7 16.1 0.00 0.58 0.58 79 1015.5
20260505223323 26 58 8.0 14.5 0.00 0.58 0.58 80 1015.5
20260505222842 26 59 8.0 19.3 0.00 0.58 0.58 79 1015.5
20260505222351 26 46 9.7 19.3 0.00 0.58 0.58 79 1015.5
20260505221848 26 105 6.4 16.1 0.00 0.58 0.58 79 1015.4
20260505221330 26 63 8.0 16.1 0.00 0.58 0.58 79 1015.3
20260505220837 26 146 8.0 20.9 0.00 0.58 0.58 79 1015.3
20260505220331 26 50 8.0 20.9 0.00 0.58 0.58 79 1015.3
20260505215823 26 54 9.7 14.5 0.00 0.58 0.58 78 1015.3
20260505215333 27 139 8.0 14.5 0.00 0.58 0.58 78 1015.4
20260505214845 27 23 6.4 20.9 0.00 0.58 0.58 79 1015.3
20260505214330 27 51 12.9 20.9 0.00 0.58 0.58 79 1015.2
20260505213825 27 65 11.3 19.3 0.00 0.58 0.58 78 1015.0
20260505213320 27 115 6.4 16.1 0.00 0.58 0.58 78 1014.9
20260505212831 27 25 8.0 17.7 0.00 0.58 0.58 78 1015.0
20260505212405 27 115 9.7 17.7 0.00 0.58 0.58 77 1014.7
20260505211829 27 65 8.0 22.5 0.00 0.58 0.58 78 1014.7
20260505211322 27 49 9.7 22.5 0.00 0.58 0.58 77 1014.6
20260505210837 27 79 8.0 19.3 0.00 0.58 0.58 77 1014.6
20260505210328 27 33 8.0 17.7 0.00 0.58 0.58 78 1014.6
20260505205821 27 61 9.7 16.1 0.00 0.58 0.58 77 1014.7
20260505205343 27 67 6.4 16.1 0.00 0.58 0.58 77 1014.8
20260505204829 27 61 6.4 17.7 0.00 0.58 0.58 78 1014.6
20260505204323 27 328 9.7 17.7 0.00 0.58 0.58 77 1014.8
20260505203832 27 50 8.0 14.5 0.00 0.58 0.58 76 1014.9
20260505203328 27 77 8.0 16.1 0.00 0.58 0.58 76 1014.8
20260505202820 27 128 6.4 16.1 0.00 0.58 0.58 76 1014.9
20260505202335 27 101 8.0 16.1 0.00 0.58 0.58 76 1014.9
20260505201841 27 84 8.0 16.1 0.00 0.58 0.58 76 1015.1
20260505201350 27 63 8.0 12.9 0.00 0.58 0.58 75 1015.1
20260505200823 27 212 4.8 19.3 0.00 0.58 0.58 76 1015.1
20260505200337 27 27 9.7 19.3 0.00 0.58 0.58 75 1015.0
20260505195852 28 59 6.4 17.7 0.00 0.58 0.58 76 1015.1
20260505195323 28 44 6.4 12.9 0.00 0.58 0.58 76 1015.1
20260505194832 27 61 4.8 16.1 0.00 0.58 0.58 77 1015.2
20260505194347 27 39 9.7 16.1 0.00 0.58 0.58 76 1015.2
20260505193905 27 37 6.4 16.1 0.00 0.58 0.58 76 1015.2
20260505193329 28 68 8.0 14.5 0.00 0.58 0.58 77 1015.3
20260505192821 27 67 8.0 17.7 0.00 0.58 0.58 76 1015.4
20260505192331 27 52 9.7 17.7 0.00 0.58 0.58 76 1015.4
20260505191824 27 22 8.0 16.1 0.00 0.58 0.58 76 1015.5
20260505191346 27 345 8.0 12.9 0.00 0.58 0.58 77 1015.6
20260505190819 27 101 8.0 14.5 0.00 0.58 0.58 77 1015.7
20260505190334 27 108 8.0 14.5 0.00 0.58 0.58 77 1015.6
20260505185827 27 49 4.8 20.9 0.00 0.58 0.58 77 1015.6
20260505185337 27 106 8.0 20.9 0.00 0.58 0.58 77 1015.6
20260505184902 27 55 6.4 16.1 0.00 0.58 0.58 77 1015.6
20260505184322 27 56 8.0 16.1 0.00 0.58 0.58 77 1015.7
20260505183843 27 72 8.0 17.7 0.00 0.58 0.58 77 1015.7
20260505183335 27 36 6.4 17.7 0.00 0.58 0.58 78 1015.8
20260505182825 28 67 6.4 16.1 0.00 0.58 0.58 77 1015.6
20260505182334 27 51 8.0 19.3 0.00 0.58 0.58 78 1015.6
20260505181838 27 122 9.7 19.3 0.00 0.58 0.58 78 1015.8
20260505181403 27 118 8.0 14.5 0.00 0.58 0.58 78 1015.7
20260505180848 27 13 8.0 19.3 0.00 0.58 0.58 78 1015.8
20260505180327 27 123 8.0 19.3 0.00 0.58 0.58 78 1016.0
20260505175820 27 27 11.3 19.3 0.00 0.58 0.58 79 1016.2
20260505175343 27 52 9.7 16.1 0.00 0.58 0.58 78 1016.1
20260505174838 27 60 8.0 17.7 0.00 0.58 0.58 78 1016.1
20260505174348 27 63 9.7 17.7 0.00 0.58 0.58 78 1016.3
20260505173841 27 5 8.0 19.3 0.00 0.58 0.58 79 1016.3
20260505173407 27 46 11.3 19.3 0.00 0.58 0.58 79 1016.2
20260505172819 27 67 9.7 14.5 0.00 0.58 0.58 79 1016.1
20260505172352 27 49 6.4 20.9 0.00 0.58 0.58 79 1016.1
20260505171829 27 109 9.7 20.9 0.00 0.58 0.58 78 1016.1
20260505171322 27 41 6.4 16.1 0.00 0.58 0.58 79 1016.3
20260505170823 27 75 6.4 16.1 0.00 0.58 0.58 79 1016.3
20260505170344 27 18 9.7 16.1 0.00 0.58 0.58 78 1016.3
20260505165835 28 85 4.8 12.9 0.00 0.58 0.58 79 1016.4
20260505165327 27 108 4.8 19.3 0.00 0.58 0.58 78 1016.3
20260505164836 27 155 11.3 19.3 0.00 0.58 0.58 78 1016.4
20260505164331 27 138 9.7 25.7 0.00 0.58 0.58 79 1016.3
20260505163836 27 35 9.7 25.7 0.00 0.58 0.58 79 1016.4
20260505163331 27 38 8.0 16.1 0.00 0.58 0.58 78 1016.4
20260505162844 27 47 6.4 19.3 0.00 0.58 0.58 79 1016.5
20260505162354 27 59 8.0 19.3 0.00 0.58 0.58 77 1016.5
20260505161846 27 117 8.0 12.9 0.00 0.58 0.58 77 1016.5
20260505161403 28 44 4.8 11.3 0.00 0.58 0.58 79 1016.6
20260505160824 27 132 6.4 16.1 0.00 0.58 0.58 78 1016.6
20260505160333 27 28 8.0 16.1 0.00 0.58 0.58 79 1016.5
20260505153327 27 60 9.7 16.1 0.00 0.61 0.58 79 1016.4
20260505152819 27 23 6.4 12.9 0.00 0.61 0.58 79 1016.4
20260505152322 27 66 8.0 11.3 0.00 0.61 0.58 79 1016.5
20260505151850 27 95 4.8 14.5 0.00 0.61 0.58 79 1016.5
20260505151357 27 53 8.0 14.5 0.00 0.61 0.58 78 1016.4
20260505150848 27 58 4.8 12.9 0.00 0.61 0.58 79 1016.5
20260505150335 27 51 6.4 16.1 0.00 0.61 0.58 79 1016.5
20260505140325 26 113 4.8 14.5 0.00 0.69 0.58 81 1016.3
20260505124832 25 76 6.4 12.9 0.00 0.71 0.58 85 1015.8
20260505124324 25 29 3.2 12.9 0.00 0.71 0.58 85 1015.8
20260505123831 25 143 4.8 14.5 0.00 0.71 0.58 84 1015.8
20260505123321 25 58 6.4 14.5 0.00 0.71 0.58 84 1015.6
20260505122824 25 39 6.4 12.9 0.00 0.71 0.58 85 1015.4
20260505122344 25 82 6.4 11.3 0.00 0.71 0.58 85 1015.3
20260505121827 25 83 4.8 8.0 0.00 0.71 0.58 86 1015.3
20260505121333 24 60 4.8 9.7 0.00 0.71 0.58 86 1015.4
20260505120836 24 68 6.4 9.7 0.00 0.71 0.58 87 1015.2
20260505120326 24 73 4.8 9.7 0.00 0.71 0.58 87 1015.2
20260505115830 23 354 4.8 8.0 0.00 0.71 0.58 88 1015.3
20260505115323 23 37 3.2 8.0 0.00 0.71 0.58 88 1015.1
20260505114832 23 124 1.6 4.8 0.00 0.71 0.58 89 1015.1
20260505114354 23 46 3.2 4.8 0.00 0.71 0.58 89 1015.3
20260505113845 23 44 1.6 4.8 0.00 0.71 0.58 89 1015.2
20260505113347 23 42 0.0 3.2 0.00 0.71 0.58 90 1015.2
20260505112839 23 42 1.6 3.2 0.00 0.71 0.58 90 1015.1
20260505112326 22 43 0.0 3.2 0.00 0.71 0.58 91 1015.1
20260505111831 22 60 0.0 0.0 0.00 0.71 0.58 91 1015.0
20260505111323 22 32 0.0 0.0 0.00 0.71 0.58 91 1015.0
20260505110836 22 30 0.0 0.0 0.00 0.71 0.58 91 1014.9
20260505110328 22 355 0.0 0.0 0.00 0.71 0.58 91 1015.0
20260505101825 22 45 0.0 3.2 0.00 0.71 0.58 90 1014.7
20260505101328 22 45 0.0 1.6 0.00 0.71 0.58 90 1014.7
20260505100823 22 46 0.0 3.2 0.00 0.71 0.58 90 1014.5
20260505100333 22 57 0.0 0.0 0.00 0.71 0.58 90 1014.5
20260505095828 22 77 0.0 1.6 0.00 0.71 0.58 90 1014.4
20260505095348 22 123 0.0 3.2 0.00 0.71 0.58 90 1014.4
20260505094834 22 49 0.0 3.2 0.00 0.71 0.58 90 1014.3
20260505094330 22 39 0.0 4.8 0.00 0.71 0.58 90 1014.3
20260505093824 22 39 1.6 4.8 0.00 0.71 0.58 90 1014.3
20260505093335 22 44 1.6 6.4 0.00 0.71 0.58 90 1014.1
20260505092830 22 40 1.6 6.4 0.00 0.71 0.58 89 1013.9
20260505092407 22 48 3.2 3.2 0.00 0.71 0.58 89 1014.2
20260505091828 22 59 0.0 4.8 0.00 0.71 0.58 89 1014.2
20260505091342 22 60 1.6 4.8 0.00 0.71 0.58 89 1014.2
20260505090830 22 134 1.6 6.4 0.00 0.71 0.58 89 1014.2
20260505090406 23 125 1.6 8.0 0.00 0.71 0.58 89 1014.3
20260505085903 23 127 1.6 8.0 0.00 0.71 0.58 89 1014.3
20260505085347 23 63 1.6 6.4 0.00 0.74 0.58 89 1014.2
20260505084902 23 130 3.2 6.4 0.00 0.74 0.58 89 1014.1
20260505084323 22 51 3.2 8.0 0.00 0.74 0.58 89 1014.0
20260505083845 22 61 3.2 9.7 0.00 0.74 0.58 89 1014.0
20260505083344 22 46 3.2 9.7 0.00 0.74 0.58 89 1013.9
20260505082836 22 34 3.2 8.0 0.00 0.74 0.58 89 1013.9
20260505082337 22 42 3.2 8.0 0.00 0.74 0.58 89 1013.9
20260505081825 22 55 3.2 8.0 0.00 0.74 0.58 89 1013.9
20260505081324 22 68 4.8 8.0 0.00 0.74 0.58 90 1013.9
20260505080826 22 38 4.8 8.0 0.00 0.74 0.58 90 1014.2
20260505080359 22 37 4.8 6.4 0.00 0.74 0.58 90 1014.0
20260505075836 22 54 3.2 8.0 0.00 0.74 0.58 90 1013.9
20260505075329 22 48 4.8 8.0 0.00 2.36 0.58 90 1014.0
20260505074844 22 38 3.2 6.4 0.00 2.36 0.58 90 1014.4
20260505074355 22 35 3.2 6.4 0.00 2.36 0.58 90 1014.3
20260505073826 22 131 1.6 6.4 0.00 2.36 0.58 90 1014.4
20260505073334 22 36 3.2 6.4 0.00 2.36 0.58 90 1014.4
20260505072824 22 51 1.6 3.2 0.00 2.36 0.58 90 1014.6
20260505072338 22 116 0.0 4.8 0.00 2.36 0.58 90 1014.5
20260505071840 22 65 1.6 4.8 0.00 2.36 0.58 90 1014.4
20260505071331 22 115 1.6 4.8 0.00 2.36 0.58 90 1014.4
20260505070821 22 68 1.6 4.8 0.00 2.36 0.58 90 1014.4
20260505070329 22 41 1.6 8.0 0.00 2.36 0.58 90 1014.6
20260505065841 22 63 3.2 8.0 0.00 2.36 0.58 90 1014.5
20260505065333 22 61 1.6 3.2 0.00 2.36 0.58 90 1014.5
20260505064826 22 56 1.6 8.0 0.00 2.36 0.58 91 1014.5
20260505064333 22 31 3.2 8.0 0.00 2.36 0.58 91 1014.4
20260505063856 22 68 1.6 8.0 0.00 2.36 0.58 91 1014.4
20260505063325 22 79 3.2 8.0 0.00 2.36 0.58 91 1014.5
20260505062837 22 37 1.6 4.8 0.00 2.36 0.58 91 1014.8
20260505062328 22 62 1.6 8.0 0.03 2.36 0.58 91 1014.9
20260505061849 22 21 3.2 8.0 0.08 2.36 0.58 91 1015.0
20260505061331 22 23 1.6 6.4 0.25 2.36 0.58 91 1015.0
20260505060823 22 42 1.6 6.4 0.33 2.36 0.58 91 1015.1
20260505060326 22 54 4.8 11.3 0.46 2.36 0.58 91 1015.2
20260505055838 22 44 3.2 11.3 0.48 2.36 0.58 91 1015.3
20260505055336 22 35 1.6 6.4 0.56 2.36 0.58 91 1015.2
20260505054828 22 59 1.6 8.0 0.58 2.36 0.58 91 1015.1
20260505054321 22 64 3.2 9.7 0.58 2.36 0.58 90 1015.0
20260505053823 22 45 4.8 9.7 0.58 2.36 0.58 90 1015.1
20260505053344 22 36 4.8 6.4 0.58 2.36 0.58 90 1015.3
20260505052835 22 53 1.6 4.8 0.58 2.36 0.58 90 1015.6
20260505052335 22 134 1.6 4.8 0.56 2.34 0.56 90 1015.8
20260505051838 22 128 3.2 8.0 0.51 2.29 0.51 90 1015.7
20260505051348 22 79 4.8 8.0 0.33 2.11 0.33 89 1015.6
20260505050839 22 122 4.8 11.3 0.25 2.03 0.25 89 1015.7
20260505050332 22 120 6.4 14.5 0.13 1.91 0.13 88 1015.8
20260505041323 24 51 3.2 16.1 0.00 1.78 0.00 81 1016.0
20260505040834 24 57 3.2 16.1 0.00 1.78 0.00 80 1016.0
20260505040322 24 97 6.4 12.9 0.00 1.78 0.00 80 1016.0
20260505035835 24 125 3.2 14.5 0.00 1.78 0.00 81 1016.0
20260505035326 24 69 8.0 14.5 0.00 1.78 1.78 81 1015.9
20260505034847 24 41 3.2 11.3 0.00 1.78 1.78 81 1016.0
20260505034339 24 65 6.4 11.3 0.00 1.78 1.78 81 1016.0
20260505033829 24 61 4.8 8.0 0.00 1.78 1.78 81 1016.0
20260505033343 24 42 3.2 14.5 0.00 1.78 1.78 81 1016.1
20260505032845 24 89 6.4 14.5 0.00 1.78 1.78 81 1016.0
20260505032338 24 45 3.2 14.5 0.00 1.78 1.78 81 1015.9
20260505031821 24 76 6.4 14.5 0.00 1.78 1.78 81 1015.9
20260505031332 24 75 3.2 11.3 0.00 1.78 1.78 81 1015.9
20260505030822 24 48 3.2 11.3 0.00 1.78 1.78 81 1015.9
20260505030337 24 36 4.8 11.3 0.00 1.78 1.78 81 1015.8
20260505025830 24 103 4.8 11.3 0.00 1.78 1.78 81 1015.8
20260505025324 24 20 4.8 11.3 0.00 1.78 1.78 81 1015.8
20260505024834 24 96 6.4 11.3 0.00 1.78 1.78 81 1015.9
20260505024328 24 133 6.4 9.7 0.00 1.78 1.78 81 1016.0
20260505023823 24 133 4.8 11.3 0.00 1.78 1.78 81 1015.9
20260505023338 24 70 4.8 14.5 0.00 1.78 1.78 81 1015.7
20260505022905 24 67 9.7 14.5 0.00 1.78 1.78 80 1015.8
20260505022355 24 57 4.8 11.3 0.00 1.78 1.78 80 1015.9
20260505021826 24 71 8.0 16.1 0.00 1.78 1.78 80 1015.7
20260505021348 24 127 9.7 16.1 0.00 1.78 1.78 80 1015.9
20260505020831 24 42 4.8 12.9 0.00 1.78 1.78 80 1016.0
20260505020323 24 117 6.4 12.9 0.00 1.78 1.78 80 1015.9
20260505015836 24 97 6.4 16.1 0.00 1.78 1.78 80 1016.1
20260505015346 24 131 6.4 16.1 0.00 1.78 1.78 80 1016.0
20260505014826 24 34 6.4 12.9 0.00 1.78 1.78 80 1015.9
20260505014347 24 70 3.2 14.5 0.00 1.78 1.78 80 1015.8
20260505013820 24 121 6.4 14.5 0.00 1.78 1.78 80 1015.8
20260505013334 24 53 8.0 14.5 0.00 1.78 1.78 80 1015.6
20260505012837 24 55 8.0 14.5 0.00 1.78 1.78 80 1015.6
20260505012342 24 130 6.4 12.9 0.00 1.78 1.78 80 1015.6
20260505011850 24 97 6.4 11.3 0.00 1.78 1.78 80 1015.5
20260505011342 24 77 4.8 11.3 0.00 1.78 1.78 80 1015.5
20260505010829 24 74 6.4 11.3 0.00 1.78 1.78 80 1015.4
20260505010323 24 66 6.4 11.3 0.00 1.78 1.78 80 1015.4
20260505005845 24 228 6.4 16.1 0.00 1.78 1.78 80 1015.4
20260505005319 24 149 6.4 16.1 0.00 1.78 1.78 80 1015.3
20260505004835 24 59 4.8 12.9 0.00 1.78 1.78 80 1015.3
20260505004321 24 36 4.8 12.9 0.00 1.78 1.78 80 1015.3
20260505003832 24 39 6.4 12.9 0.00 1.78 1.78 80 1015.1
20260505003325 24 55 6.4 14.5 0.00 1.78 1.78 80 1015.1
20260505002848 24 64 6.4 14.5 0.00 1.78 1.78 80 1015.1
20260505002342 24 107 4.8 16.1 0.00 1.78 1.78 80 1015.0
20260505001838 24 141 9.7 16.1 0.00 1.78 1.78 80 1015.2
20260505001329 24 72 8.0 19.3 0.00 1.78 1.78 79 1015.1
20260505000823 24 72 9.7 19.3 0.00 1.78 1.78 79 1015.1
20260505000345 24 53 8.0 17.7 0.00 1.78 1.78 79 1015.0
20260504235829 24 50 9.7 16.1 0.00 1.78 1.78 79 1015.1
20260504235345 24 35 8.0 16.1 0.00 1.78 1.78 79 1015.1
20260504234854 24 64 4.8 16.1 0.00 1.78 1.78 79 1015.0
20260504234327 25 22 8.0 22.5 0.00 1.78 1.78 79 1015.0
20260504233820 25 66 9.7 22.5 0.00 1.78 1.78 79 1015.1
20260504233342 25 68 9.7 22.5 0.00 1.78 1.78 79 1015.0
20260504232836 25 59 9.7 22.5 0.00 1.78 1.78 79 1015.1
20260504232330 25 322 6.4 14.5 0.00 1.78 1.78 79 1015.1
20260504231832 25 23 6.4 14.5 0.00 1.78 1.78 79 1015.0
20260504231346 25 32 8.0 17.7 0.00 1.78 1.78 79 1014.9
20260504230847 25 144 6.4 17.7 0.00 1.78 1.78 79 1014.8
20260504230341 25 53 9.7 20.9 0.00 1.78 1.78 79 1014.8
20260504225832 25 80 11.3 20.9 0.00 1.78 1.78 78 1014.6
20260504225324 25 41 9.7 20.9 0.00 1.78 1.78 78 1014.7
20260504224846 25 56 9.7 20.9 0.00 1.78 1.78 78 1014.6
20260504224342 25 82 11.3 20.9 0.00 1.78 1.78 78 1014.7